Torna al catalogo

COSMOS 2226

AttivoMilitareLEO
NORAD 22282·PAYLOAD·🇷🇺 Russia

Lanciato Dec 22, 1992 da Plesetsk Cosmodrome

Loading…

Prossimi Passaggi (prossime 24 ore)

TLE

AggiornatoSource: Space-Track

Epoca: Sep 14, 2026, 05:13 UTC

1 22282U 92092A   26257.21745152  .00000003  00000-0  15223-3 0  9996
2 22282  73.6284 346.4192 0030033 259.3183 126.1939 12.41306540528256

Traccia COSMOS 2226 in tempo reale con AllMySat

Download on the App Store